Back to catalog

STARLINK-5639

AliveCommunicationsVLEO
NORAD 55365·PAYLOAD·🇺🇸 United States

Launched Jan 26, 2023 from Cape Canaveral Space Force Station

Loading…

Next Passes (next 24 hours)

TLE

FreshSource: CelesTrak SupGP

Epoch: Sep 14, 2026, 22:03 UTC

1 55365C 23013AL  26257.91923611 -.00032904  00000+0 -11917-2 0  2574
2 55365  43.0016 332.6492 0001450 270.2832 172.4355 15.27596555    11

Track STARLINK-5639 in real time with AllMySat

Download on the App Store